Time,TemperatureF,DewpointF,PressureIn,WindDirection,WindDirectionDegrees,WindSpeedMPH,WindSpeedGustMPH,Humidity,HourlyPrecipIn,Conditions,Clouds,dailyrainin,SoftwareType,DateUTC
2013-01-07 00:00:00,16.9,11.8,29.94,SSE,158,7.6,7.6,80,0.00,,,0.00,WUHU216HW,2013-01-07 06:00:00,
2013-01-07 00:05:00,16.9,11.8,29.94,SSE,158,8.5,8.5,80,0.00,,,0.00,WUHU216HW,2013-01-07 06:05:00,
2013-01-07 00:10:00,16.9,11.8,29.94,SSE,158,8.5,8.5,80,0.00,,,0.00,WUHU216HW,2013-01-07 06:10:00,
2013-01-07 00:30:00,17.6,12.4,29.90,SSE,158,12.1,12.1,80,0.00,,,0.00,WUHU216HW,2013-01-07 06:30:00,
2013-01-07 00:35:00,17.8,12.6,29.90,SSE,158,12.1,12.1,80,0.00,,,0.00,WUHU216HW,2013-01-07 06:35:00,
2013-01-07 00:36:00,17.8,12.6,29.90,SSE,158,12.1,12.1,80,0.00,,,0.00,WUHU216HW,2013-01-07 06:36:00,
2013-01-07 01:00:00,18.7,13.5,29.88,SSE,158,11.4,11.4,80,0.00,,,0.00,WUHU216HW,2013-01-07 07:00:00,
2013-01-07 01:05:00,18.7,13.5,29.88,South,180,11.0,11.4,80,0.00,,,0.00,WUHU216HW,2013-01-07 07:05:00,
2013-01-07 01:10:00,18.7,13.5,29.88,South,180,11.0,11.0,80,0.00,,,0.00,WUHU216HW,2013-01-07 07:10:00,
2013-01-07 01:30:00,19.1,13.9,29.88,SSE,158,7.4,7.4,80,0.00,,,0.00,WUHU216HW,2013-01-07 07:30:00,
2013-01-07 01:35:00,19.1,13.9,29.88,SSE,158,7.4,7.4,80,0.00,,,0.00,WUHU216HW,2013-01-07 07:35:00,
2013-01-07 01:36:00,19.1,13.9,29.88,SSE,158,7.4,7.4,80,0.00,,,0.00,WUHU216HW,2013-01-07 07:36:00,
2013-01-07 01:40:00,19.1,13.9,29.88,SSE,158,7.4,7.4,80,0.00,,,0.00,WUHU216HW,2013-01-07 07:40:00,
2013-01-07 02:00:00,19.1,14.1,29.85,SE,135,6.9,6.9,81,0.00,,,0.00,WUHU216HW,2013-01-07 08:00:00,
2013-01-07 02:05:00,19.1,14.1,29.85,SSE,158,6.3,6.9,81,0.00,,,0.00,WUHU216HW,2013-01-07 08:05:00,
2013-01-07 02:10:00,19.1,14.1,29.85,SSE,158,6.3,6.9,81,0.00,,,0.00,WUHU216HW,2013-01-07 08:10:00,
2013-01-07 02:30:00,19.6,14.4,29.86,South,180,4.7,4.7,80,0.00,,,0.00,WUHU216HW,2013-01-07 08:30:00,
2013-01-07 02:35:00,19.6,14.4,29.86,South,180,6.9,6.9,80,0.00,,,0.00,WUHU216HW,2013-01-07 08:35:00,
2013-01-07 02:36:00,19.6,14.4,29.86,South,180,6.9,6.9,80,0.00,,,0.00,WUHU216HW,2013-01-07 08:36:00,
2013-01-07 03:00:00,19.6,14.7,29.84,South,180,7.6,7.6,81,0.00,,,0.00,WUHU216HW,2013-01-07 09:00:00,
2013-01-07 03:05:00,19.8,14.9,29.84,SSE,158,5.8,7.6,81,0.00,,,0.00,WUHU216HW,2013-01-07 09:05:00,
2013-01-07 03:30:00,20.5,15.6,29.83,SSE,158,6.9,6.9,81,0.00,,,0.00,WUHU216HW,2013-01-07 09:30:00,
2013-01-07 03:35:00,20.3,15.1,29.83,SSE,158,6.9,6.9,80,0.00,,,0.00,WUHU216HW,2013-01-07 09:35:00,
2013-01-07 03:36:00,20.3,15.1,29.83,SSE,158,6.9,6.9,80,0.00,,,0.00,WUHU216HW,2013-01-07 09:36:00,
2013-01-07 03:40:00,20.3,15.1,29.83,SSE,158,6.9,6.9,80,0.00,,,0.00,WUHU216HW,2013-01-07 09:40:00,
2013-01-07 04:00:00,21.1,15.8,29.81,SSE,158,6.7,6.7,80,0.00,,,0.00,WUHU216HW,2013-01-07 10:00:00,
2013-01-07 04:05:00,21.1,15.8,29.81,SSW,203,6.9,6.9,80,0.00,,,0.00,WUHU216HW,2013-01-07 10:05:00,
2013-01-07 04:30:00,22.0,16.7,29.81,SSW,203,2.5,2.5,80,0.00,,,0.00,WUHU216HW,2013-01-07 10:30:00,
2013-01-07 04:35:00,22.0,16.7,29.82,South,180,0.4,2.5,80,0.00,,,0.00,WUHU216HW,2013-01-07 10:35:00,
2013-01-07 04:40:00,22.0,16.7,29.82,South,180,0.4,0.4,80,0.00,,,0.00,WUHU216HW,2013-01-07 10:40:00,
2013-01-07 05:00:00,23.4,18.2,29.81,SSE,158,1.8,1.8,80,0.00,,,0.00,WUHU216HW,2013-01-07 11:00:00,
2013-01-07 05:05:00,23.4,18.2,29.81,ESE,113,3.6,3.6,80,0.00,,,0.00,WUHU216HW,2013-01-07 11:05:00,
2013-01-07 05:10:00,23.4,18.2,29.81,ESE,113,3.6,3.6,80,0.00,,,0.00,WUHU216HW,2013-01-07 11:10:00,
2013-01-07 05:30:00,27.7,21.4,29.82,SW,225,6.9,6.9,77,0.00,,,0.00,WUHU216HW,2013-01-07 11:30:00,
2013-01-07 05:35:00,27.7,21.4,29.81,SSW,203,9.8,9.8,77,0.00,,,0.00,WUHU216HW,2013-01-07 11:35:00,
2013-01-07 05:36:00,27.7,21.4,29.81,SSW,203,9.8,9.8,77,0.00,,,0.00,WUHU216HW,2013-01-07 11:36:00,
2013-01-07 05:40:00,27.7,21.4,29.81,SSW,203,9.8,9.8,77,0.00,,,0.00,WUHU216HW,2013-01-07 11:40:00,
2013-01-07 06:00:00,28.4,21.5,29.82,South,180,6.7,6.7,75,0.00,,,0.00,WUHU216HW,2013-01-07 12:00:00,
2013-01-07 06:05:00,28.4,21.5,29.82,SW,225,8.3,8.3,75,0.00,,,0.00,WUHU216HW,2013-01-07 12:05:00,
2013-01-07 06:10:00,28.4,21.5,29.82,SW,225,8.3,8.3,75,0.00,,,0.00,WUHU216HW,2013-01-07 12:10:00,
2013-01-07 06:30:00,28.3,21.6,29.81,SSW,203,4.5,4.5,76,0.00,,,0.00,WUHU216HW,2013-01-07 12:30:00,
2013-01-07 06:35:00,28.3,21.6,29.81,SSW,203,4.5,4.5,76,0.00,,,0.00,WUHU216HW,2013-01-07 12:35:00,
2013-01-07 06:36:00,28.3,21.6,29.81,SSW,203,4.5,4.5,76,0.00,,,0.00,WUHU216HW,2013-01-07 12:36:00,
2013-01-07 06:40:00,28.3,21.6,29.81,SSW,203,4.5,4.5,76,0.00,,,0.00,WUHU216HW,2013-01-07 12:40:00,
2013-01-07 07:00:00,27.9,21.2,29.83,SW,225,7.6,7.6,76,0.00,,,0.00,WUHU216HW,2013-01-07 13:00:00,
2013-01-07 07:05:00,27.9,21.2,29.83,SW,225,9.4,9.4,76,0.00,,,0.00,WUHU216HW,2013-01-07 13:05:00,
2013-01-07 07:10:00,27.9,21.2,29.83,SW,225,9.4,9.4,76,0.00,,,0.00,WUHU216HW,2013-01-07 13:10:00,
2013-01-07 07:30:00,27.0,21.0,29.82,SSW,203,2.2,2.2,78,0.00,,,0.00,WUHU216HW,2013-01-07 13:30:00,
2013-01-07 07:35:00,27.0,21.0,29.82,SSW,203,5.4,6.0,78,0.00,,,0.00,WUHU216HW,2013-01-07 13:35:00,
2013-01-07 07:36:00,27.0,21.0,29.82,SSW,203,5.4,6.0,78,0.00,,,0.00,WUHU216HW,2013-01-07 13:36:00,
2013-01-07 07:40:00,27.0,21.0,29.82,SSW,203,5.4,6.0,78,0.00,,,0.00,WUHU216HW,2013-01-07 13:40:00,
2013-01-07 08:00:00,26.6,21.0,29.80,SSE,158,4.7,4.7,79,0.00,,,0.00,WUHU216HW,2013-01-07 14:00:00,
2013-01-07 08:05:00,26.6,21.0,29.80,SE,135,7.4,7.4,79,0.00,,,0.00,WUHU216HW,2013-01-07 14:05:00,
2013-01-07 08:10:00,26.6,21.0,29.80,SE,135,7.4,7.4,79,0.00,,,0.00,WUHU216HW,2013-01-07 14:10:00,
2013-01-07 08:30:00,27.2,21.2,29.81,SW,225,5.8,5.8,78,0.00,,,0.00,WUHU216HW,2013-01-07 14:30:00,
2013-01-07 08:35:00,27.2,21.2,29.81,SSW,203,5.6,5.8,78,0.00,,,0.00,WUHU216HW,2013-01-07 14:35:00,
2013-01-07 08:36:00,27.2,21.2,29.81,SSW,203,5.6,5.8,78,0.00,,,0.00,WUHU216HW,2013-01-07 14:36:00,
2013-01-07 08:40:00,27.2,21.2,29.81,SSW,203,5.6,5.6,78,0.00,,,0.00,WUHU216HW,2013-01-07 14:40:00,
2013-01-07 09:00:00,29.3,22.4,29.81,SSW,203,10.7,10.7,75,0.00,,,0.00,WUHU216HW,2013-01-07 15:00:00,
2013-01-07 09:05:00,29.5,22.5,29.81,SW,225,7.6,10.7,75,0.00,,,0.00,WUHU216HW,2013-01-07 15:05:00,
2013-01-07 09:10:00,29.5,22.5,29.81,SW,225,7.6,10.7,75,0.00,,,0.00,WUHU216HW,2013-01-07 15:10:00,
2013-01-07 09:30:00,29.2,22.2,29.84,SSW,203,5.1,5.1,75,0.00,,,0.00,WUHU216HW,2013-01-07 15:30:00,
2013-01-07 09:35:00,29.2,22.2,29.85,SE,135,5.4,5.4,75,0.00,,,0.00,WUHU216HW,2013-01-07 15:35:00,
2013-01-07 09:40:00,29.2,22.2,29.85,SE,135,5.4,5.4,75,0.00,,,0.00,WUHU216HW,2013-01-07 15:40:00,
2013-01-07 10:00:00,29.5,22.5,29.85,SSW,203,5.4,5.4,75,0.00,,,0.00,WUHU216HW,2013-01-07 16:00:00,
2013-01-07 10:05:00,29.7,22.7,29.85,WSW,248,8.5,8.5,75,0.00,,,0.00,WUHU216HW,2013-01-07 16:05:00,
2013-01-07 10:10:00,29.7,22.7,29.85,WSW,248,8.5,8.5,75,0.00,,,0.00,WUHU216HW,2013-01-07 16:10:00,
2013-01-07 10:30:00,30.8,23.8,29.85,SE,135,4.5,4.5,75,0.00,,,0.00,WUHU216HW,2013-01-07 16:30:00,
2013-01-07 10:35:00,30.8,23.8,29.85,SW,225,3.1,4.5,75,0.00,,,0.00,WUHU216HW,2013-01-07 16:35:00,
2013-01-07 10:40:00,30.8,23.8,29.85,SW,225,3.1,3.1,75,0.00,,,0.00,WUHU216HW,2013-01-07 16:40:00,
2013-01-07 11:00:00,30.8,23.8,29.85,SSW,203,7.8,7.8,75,0.00,,,0.00,WUHU216HW,2013-01-07 17:00:00,
2013-01-07 11:05:00,30.6,23.6,29.85,SW,225,6.3,7.8,75,0.00,,,0.00,WUHU216HW,2013-01-07 17:05:00,
2013-01-07 11:10:00,30.6,23.6,29.85,SW,225,6.3,6.3,75,0.00,,,0.00,WUHU216HW,2013-01-07 17:10:00,
2013-01-07 11:30:00,30.1,23.4,29.85,SSW,203,4.3,4.3,76,0.00,,,0.00,WUHU216HW,2013-01-07 17:30:00,
2013-01-07 11:35:00,30.1,23.4,29.85,SSW,203,4.3,4.3,76,0.00,,,0.00,WUHU216HW,2013-01-07 17:35:00,
2013-01-07 11:36:00,30.1,23.4,29.85,SSW,203,4.3,4.3,76,0.00,,,0.00,WUHU216HW,2013-01-07 17:36:00,
2013-01-07 11:40:00,30.1,23.4,29.85,SSW,203,4.3,4.3,76,0.00,,,0.00,WUHU216HW,2013-01-07 17:40:00,
2013-01-07 12:00:00,33.1,24.4,29.83,SSW,203,3.6,3.6,70,0.00,,,0.00,WUHU216HW,2013-01-07 18:00:00,
2013-01-07 12:05:00,33.3,24.6,29.83,SSW,203,7.6,7.6,70,0.00,,,0.00,WUHU216HW,2013-01-07 18:05:00,
2013-01-07 12:30:00,35.1,25.2,29.82,SSW,203,8.1,8.1,67,0.00,,,0.00,WUHU216HW,2013-01-07 18:30:00,
2013-01-07 12:35:00,35.1,25.2,29.82,SSW,203,7.6,8.1,67,0.00,,,0.00,WUHU216HW,2013-01-07 18:35:00,
2013-01-07 12:36:00,35.1,25.2,29.82,SSW,203,7.6,8.1,67,0.00,,,0.00,WUHU216HW,2013-01-07 18:36:00,
2013-01-07 12:40:00,35.1,25.2,29.82,SSW,203,7.6,7.6,67,0.00,,,0.00,WUHU216HW,2013-01-07 18:40:00,
2013-01-07 13:00:00,36.4,25.8,29.82,SW,225,4.7,4.7,65,0.00,,,0.00,WUHU216HW,2013-01-07 19:00:00,
2013-01-07 13:05:00,36.4,25.8,29.82,East,90,3.4,4.7,65,0.00,,,0.00,WUHU216HW,2013-01-07 19:05:00,
2013-01-07 13:06:00,36.4,25.8,29.82,East,90,3.4,4.7,65,0.00,,,0.00,WUHU216HW,2013-01-07 19:06:00,
2013-01-07 13:30:00,38.0,26.5,29.82,SSE,158,1.3,1.3,63,0.01,,,0.00,WUHU216HW,2013-01-07 19:30:00,
2013-01-07 13:35:00,38.0,26.5,29.82,SE,135,2.5,2.5,63,0.01,,,0.01,WUHU216HW,2013-01-07 19:35:00,
2013-01-07 14:00:00,39.6,26.8,29.83,SSE,158,4.9,4.9,60,0.01,,,0.01,WUHU216HW,2013-01-07 20:00:00,
2013-01-07 14:05:00,39.6,26.8,29.83,SW,225,3.1,4.9,60,0.01,,,0.01,WUHU216HW,2013-01-07 20:05:00,
2013-01-07 14:10:00,39.6,26.8,29.83,SW,225,3.1,4.9,60,0.01,,,0.01,WUHU216HW,2013-01-07 20:10:00,
2013-01-07 14:30:00,39.4,26.2,29.83,SSW,203,6.5,6.5,59,0.00,,,0.01,WUHU216HW,2013-01-07 20:30:00,
2013-01-07 14:35:00,39.4,26.2,29.83,SSW,203,6.5,6.5,59,0.00,,,0.01,WUHU216HW,2013-01-07 20:35:00,
2013-01-07 14:40:00,39.4,26.2,29.83,SSW,203,6.5,6.5,59,0.00,,,0.01,WUHU216HW,2013-01-07 20:40:00,
2013-01-07 15:00:00,39.2,26.5,29.84,South,180,5.4,5.4,60,0.01,,,0.01,WUHU216HW,2013-01-07 21:00:00,
2013-01-07 15:05:00,39.2,26.5,29.84,SSE,158,4.0,5.4,60,0.01,,,0.02,WUHU216HW,2013-01-07 21:05:00,
2013-01-07 15:10:00,39.2,26.5,29.84,SSE,158,4.0,4.0,60,0.01,,,0.02,WUHU216HW,2013-01-07 21:10:00,
2013-01-07 15:30:00,40.7,27.0,29.85,SE,135,2.7,2.7,58,0.01,,,0.02,WUHU216HW,2013-01-07 21:30:00,
2013-01-07 15:35:00,40.7,27.0,29.85,South,180,2.9,2.9,58,0.01,,,0.02,WUHU216HW,2013-01-07 21:35:00,
2013-01-07 15:36:00,40.7,27.0,29.85,South,180,2.9,2.9,58,0.01,,,0.02,WUHU216HW,2013-01-07 21:36:00,
2013-01-07 16:00:00,37.1,25.7,29.85,SSE,158,3.4,3.4,63,0.00,,,0.02,WUHU216HW,2013-01-07 22:00:00,
2013-01-07 16:05:00,37.1,25.7,29.85,West,270,2.0,3.4,63,0.00,,,0.02,WUHU216HW,2013-01-07 22:05:00,
2013-01-07 16:06:00,37.1,25.7,29.85,West,270,2.0,3.4,63,0.00,,,0.02,WUHU216HW,2013-01-07 22:06:00,
2013-01-07 16:30:00,35.8,25.9,29.86,SW,225,1.1,1.1,67,0.00,,,0.02,WUHU216HW,2013-01-07 22:30:00,
2013-01-07 16:35:00,35.8,25.9,29.86,SW,225,1.8,1.8,67,0.00,,,0.02,WUHU216HW,2013-01-07 22:35:00,
2013-01-07 16:36:00,35.8,25.9,29.86,SW,225,1.8,1.8,67,0.00,,,0.02,WUHU216HW,2013-01-07 22:36:00,
2013-01-07 16:40:00,35.8,25.9,29.86,SW,225,1.8,1.8,67,0.00,,,0.02,WUHU216HW,2013-01-07 22:40:00,
2013-01-07 17:00:00,34.0,25.2,29.86,SSW,203,0.4,0.4,70,0.00,,,0.02,WUHU216HW,2013-01-07 23:00:00,
2013-01-07 17:05:00,34.0,25.2,29.86,SSE,158,1.1,1.1,70,0.00,,,0.02,WUHU216HW,2013-01-07 23:05:00,
2013-01-07 17:10:00,34.0,25.2,29.86,SSE,158,1.1,1.1,70,0.00,,,0.02,WUHU216HW,2013-01-07 23:10:00,
2013-01-07 17:30:00,33.3,24.8,29.87,SW,225,4.7,4.7,71,0.00,,,0.02,WUHU216HW,2013-01-07 23:30:00,
2013-01-07 17:31:00,33.3,24.8,29.87,SW,225,4.7,4.7,71,0.00,,,0.02,WUHU216HW,2013-01-07 23:31:00,
2013-01-07 17:35:00,33.3,24.8,29.87,SW,225,4.7,4.7,71,0.00,,,0.02,WUHU216HW,2013-01-07 23:35:00,
2013-01-07 17:36:00,33.3,24.8,29.87,SW,225,4.7,4.7,71,0.00,,,0.02,WUHU216HW,2013-01-07 23:36:00,
2013-01-07 17:40:00,33.3,24.8,29.87,SW,225,4.7,4.7,71,0.00,,,0.02,WUHU216HW,2013-01-07 23:40:00,
2013-01-07 18:00:00,32.8,24.7,29.87,SSE,158,3.8,3.8,72,0.00,,,0.02,WUHU216HW,2013-01-08 00:00:00,
2013-01-07 18:05:00,32.8,24.7,29.87,South,180,2.5,3.8,72,0.00,,,0.02,WUHU216HW,2013-01-08 00:05:00,
2013-01-07 18:10:00,32.8,24.7,29.87,South,180,2.5,2.5,72,0.00,,,0.02,WUHU216HW,2013-01-08 00:10:00,
2013-01-07 18:30:00,32.0,24.7,29.88,SSW,203,4.7,4.7,74,0.00,,,0.02,WUHU216HW,2013-01-08 00:30:00,
2013-01-07 18:35:00,32.0,24.7,29.88,SSW,203,2.7,4.7,74,0.00,,,0.02,WUHU216HW,2013-01-08 00:35:00,
2013-01-07 18:40:00,32.0,24.7,29.88,SSW,203,2.7,2.7,74,0.00,,,0.02,WUHU216HW,2013-01-08 00:40:00,
2013-01-07 19:00:00,31.1,24.1,29.88,South,180,3.4,3.4,75,0.00,,,0.02,WUHU216HW,2013-01-08 01:00:00,
2013-01-07 19:05:00,31.1,24.1,29.88,SSE,158,2.5,3.4,75,0.00,,,0.02,WUHU216HW,2013-01-08 01:05:00,
2013-01-07 19:10:00,31.1,24.1,29.88,SSE,158,2.5,2.5,75,0.00,,,0.02,WUHU216HW,2013-01-08 01:10:00,
2013-01-07 19:30:00,30.1,23.4,29.89,South,180,1.3,1.3,76,0.00,,,0.02,WUHU216HW,2013-01-08 01:30:00,
2013-01-07 19:35:00,30.1,23.4,29.89,South,180,1.3,1.3,76,0.00,,,0.02,WUHU216HW,2013-01-08 01:35:00,
2013-01-07 19:40:00,30.1,23.4,29.89,South,180,1.3,1.3,76,0.00,,,0.02,WUHU216HW,2013-01-08 01:40:00,
2013-01-07 20:00:00,29.5,23.1,29.88,WSW,248,1.3,1.3,77,0.00,,,0.02,WUHU216HW,2013-01-08 02:00:00,
2013-01-07 20:05:00,29.5,23.1,29.88,South,180,4.0,4.0,77,0.00,,,0.02,WUHU216HW,2013-01-08 02:05:00,
2013-01-07 20:10:00,29.5,23.1,29.88,South,180,4.0,4.0,77,0.00,,,0.02,WUHU216HW,2013-01-08 02:10:00,
2013-01-07 20:30:00,29.0,22.7,29.88,SSW,203,2.5,2.5,77,0.00,,,0.02,WUHU216HW,2013-01-08 02:30:00,
2013-01-07 20:35:00,29.0,22.7,29.88,SSW,203,2.5,2.5,77,0.00,,,0.02,WUHU216HW,2013-01-08 02:35:00,
2013-01-07 20:36:00,29.0,22.7,29.88,SSW,203,2.5,2.5,77,0.00,,,0.02,WUHU216HW,2013-01-08 02:36:00,
2013-01-07 21:00:00,28.8,22.8,29.89,South,180,4.5,4.5,78,0.00,,,0.02,WUHU216HW,2013-01-08 03:00:00,
2013-01-07 21:05:00,28.8,22.8,29.89,SSE,158,2.7,4.5,78,0.00,,,0.02,WUHU216HW,2013-01-08 03:05:00,
2013-01-07 21:10:00,28.8,22.8,29.89,SSE,158,2.7,4.5,78,0.00,,,0.02,WUHU216HW,2013-01-08 03:10:00,
2013-01-07 21:30:00,28.1,22.4,29.90,West,270,2.0,2.0,79,0.00,,,0.02,WUHU216HW,2013-01-08 03:30:00,
2013-01-07 21:31:00,28.1,22.4,29.90,SW,225,2.2,2.2,79,0.00,,,0.02,WUHU216HW,2013-01-08 03:31:00,
2013-01-07 21:35:00,28.1,22.4,29.90,SW,225,2.2,2.2,79,0.00,,,0.02,WUHU216HW,2013-01-08 03:35:00,
2013-01-07 21:36:00,28.1,22.4,29.90,SW,225,2.2,2.2,79,0.00,,,0.02,WUHU216HW,2013-01-08 03:36:00,
2013-01-07 21:41:00,28.1,22.4,29.90,SW,225,2.2,2.2,79,0.00,,,0.02,WUHU216HW,2013-01-08 03:41:00,
2013-01-07 22:00:00,27.7,22.1,29.90,SW,225,1.8,1.8,79,0.00,,,0.02,WUHU216HW,2013-01-08 04:00:00,
2013-01-07 22:05:00,27.7,22.1,29.90,SW,225,1.6,1.8,79,0.00,,,0.02,WUHU216HW,2013-01-08 04:05:00,
2013-01-07 22:10:00,27.7,22.1,29.90,SW,225,1.6,1.8,79,0.00,,,0.02,WUHU216HW,2013-01-08 04:10:00,
2013-01-07 22:30:00,26.8,21.2,29.90,SW,225,1.3,1.3,79,0.00,,,0.02,WUHU216HW,2013-01-08 04:30:00,
2013-01-07 22:35:00,26.8,21.2,29.90,WSW,248,2.9,2.9,79,0.00,,,0.02,WUHU216HW,2013-01-08 04:35:00,
2013-01-07 22:40:00,26.8,21.2,29.90,WSW,248,2.9,2.9,79,0.00,,,0.02,WUHU216HW,2013-01-08 04:40:00,
2013-01-07 23:00:00,25.6,20.3,29.92,SSW,203,2.5,2.5,80,0.00,,,0.02,WUHU216HW,2013-01-08 05:00:00,
2013-01-07 23:03:00,25.6,20.3,29.92,SSW,203,2.5,2.5,80,0.00,,,0.02,WUHU216HW,2013-01-08 05:03:00,
2013-01-07 23:05:00,25.6,20.3,29.92,SSW,203,2.5,2.5,80,0.00,,,0.02,WUHU216HW,2013-01-08 05:05:00,
2013-01-07 23:06:00,25.6,20.3,29.92,SSW,203,2.5,2.5,80,0.00,,,0.02,WUHU216HW,2013-01-08 05:06:00,
2013-01-07 23:08:00,25.6,20.3,29.92,SSW,203,2.5,2.5,80,0.00,,,0.02,WUHU216HW,2013-01-08 05:08:00,
2013-01-07 23:30:00,24.5,19.5,29.92,SW,225,0.0,0.0,81,0.00,,,0.02,WUHU216HW,2013-01-08 05:30:00,
2013-01-07 23:35:00,24.5,19.5,29.92,SW,225,0.4,0.4,81,0.00,,,0.02,WUHU216HW,2013-01-08 05:35:00,
2013-01-07 23:40:00,24.5,19.5,29.92,SW,225,0.4,0.4,81,0.00,,,0.02,WUHU216HW,2013-01-08 05:40:00,